Luxor, Egypt

9:45 PM EET on May 23, 2018 (GMT +0200)
Luxor

Weather History for HELX - September, 2013

Change the Weather History Date:

Tuesday, September 17, 2013

  Actual Average Record
Temperature  
Mean Temperature 88 °F -  
Max Temperature 103 °F 94 °F 107 °F (1998)
Min Temperature 74 °F 68 °F 68 °F (2004)
Cooling Degree Days 24    
Growing Degree Days 38 (Base 50)    
Moisture  
Dew Point 57 °F    
Average Humidity 34    
Maximum Humidity 57    
Minimum Humidity 15    
Precipitation  
Precipitation 0.00 in 0.00 in - ()
Sea Level Pressure  
Sea Level Pressure 29.74 in    
Wind  
Wind Speed 2 mph ()    
Max Wind Speed 5 mph    
Max Gust Speed -    
Visibility 6.0 miles    
Events      
Averages and records for this station are not official NWS values.
T = Trace of Precipitation, MM = Missing Value Source: Averaged Metar Reports

Daily Weather History Graph

Daily Weather History Graph

Search for Another Location

Airport or City:

Astronomy

Sep. 17, 2013 Rise Set
Actual Time 5:35 AM EET 5:51 PM EET
Civil Twilight 5:12 AM EET 6:14 PM EET
Nautical Twilight 4:45 AM EET 6:40 PM EET
Astronomical Twilight 4:18 AM EET 7:07 PM EET
Moon 4:18 PM EET (9/17) 3:17 AM EET (9/17)
Length of Visible Light 13h 01m
Length of Day
12h 15m
Waxing Gibbous, 94% of the Moon is Illuminated
Sep 17
Waxing Gibbous
Sep 19
Full
Sep 27
Last Quarter
Oct 5
New
Oct 12
First Quarter

Hourly Weather History & Observations

Time (EET) Temp. Heat Index Dew Point Humidity Pressure Visibility Wind Dir Wind Speed Gust Speed Precip Events Conditions
12:00 AM 82.4 °F 82.0 °F 57.2 °F 42% 29.74 in - SSE 3.5 mph - N/A   Clear
1:00 AM 80.6 °F 80.5 °F 55.4 °F 42% 29.74 in - Calm Calm - N/A   Clear
2:00 AM 80 °F - 55 °F 32% 29.73 in 6 mi Calm Calm - -  
2:00 AM 80.6 °F 80.5 °F 55.4 °F 42% 29.74 in - Calm Calm - N/A   Clear
3:00 AM 78.8 °F - 53.6 °F 42% 29.74 in - Calm Calm - N/A   Clear
4:00 AM 78.8 °F - 57.2 °F 47% 29.74 in - Calm Calm - N/A   Clear
5:00 AM 77.0 °F - 57.2 °F 50% 29.74 in - Calm Calm - N/A   Clear
6:00 AM 75.2 °F - 59.0 °F 57% 29.77 in - South 2.3 mph - N/A   Clear
7:00 AM 80.6 °F 81.1 °F 59.0 °F 48% 29.77 in - Calm Calm - N/A   Clear
8:00 AM 83 °F - 60 °F 35% 29.79 in 6 mi SSW 2.3 mph - -  
8:00 AM 82.4 °F 82.9 °F 60.8 °F 48% 29.80 in - SSW 2.3 mph - N/A   Clear
9:00 AM 87.8 °F 87.6 °F 60.8 °F 40% 29.80 in - WNW 2.3 mph - N/A   Clear
10:00 AM 91.4 °F 92.1 °F 62.6 °F 38% 29.80 in - West 3.5 mph - N/A   Clear
11:00 AM 95.0 °F 93.0 °F 55.4 °F 26% 29.77 in - NNW 3.5 mph - N/A   Clear
12:00 PM 98.6 °F 97.2 °F 55.4 °F 24% 29.77 in - NNW 4.6 mph - N/A   Clear
1:00 PM 98.6 °F 97.6 °F 57.2 °F 25% 29.74 in - NNW 4.6 mph - N/A   Clear
2:00 PM 102 °F - 58 °F 15% 29.71 in 6 mi NNW 4.6 mph - -  
2:00 PM 102.2 °F 102.4 °F 59.0 °F 24% 29.71 in - NNW 4.6 mph - N/A   Clear
3:00 PM 102.2 °F 101.4 °F 57.2 °F 22% 29.71 in - WNW 2.3 mph - N/A   Clear
4:00 PM 102.2 °F 100.9 °F 55.4 °F 21% 29.68 in - West 2.3 mph - N/A   Clear
5:00 PM 100.4 °F 100.2 °F 59.0 °F 25% 29.68 in - WNW 2.3 mph - N/A   Clear
6:00 PM 95.0 °F 95.2 °F 60.8 °F 32% 29.68 in - West 3.5 mph - N/A   Clear
7:00 PM 89.6 °F 87.7 °F 55.4 °F 31% 29.71 in - WSW 4.6 mph - N/A   Clear
8:00 PM 89 °F - 56 °F 23% 29.73 in 6 mi SSW 2.3 mph - -  
8:00 PM 87.8 °F 86.1 °F 55.4 °F 33% 29.74 in - SSW 2.3 mph - N/A   Clear
9:00 PM 87.8 °F 86.1 °F 55.4 °F 33% 29.74 in - SSW 3.5 mph - N/A   Clear
10:00 PM 86.0 °F - 51.8 °F 31% 29.77 in - South 2.3 mph - N/A   Clear
11:00 PM 84.2 °F - 51.8 °F 33% 29.77 in - South 2.3 mph - N/A   Clear